Flag for France Weather past 2 weeks in Toulouse, France

Now
77 °F

Passing clouds.


Feels Like: 79 °F
Forecast: 65 / 97 °F
Wind: 6 mph from West

Location: Toulouse / Blagnac

Current Time: Jul 5, 2015 at 10:16:01 AM

Latest Report: Jul 5, 2015 at 9:30 AM


Visibility: N/A

Pressure: 30.04 "Hg

Humidity: 69%

Dew point: 66 °F

Location of ToulouseLocation

Historic Weather in Toulouse — Graph

°F

Toulouse temperature yesterday

Maximum temperature yesterday: 91 °F (at 5:00 PM)
Minimum temperature yesterday: 72 °F (at 5:30 AM)
Average temperature yesterday: 82 °F

Past Weeks' High & Low Weather Summary

 TemperatureHumidityPressure
High95 °F (Jul 3, 3:30 PM)94% (Jun 21, 6:00 AM)30.24 "Hg (Jun 21, 6:00 AM)
Low57 °F (Jun 21, 6:00 AM)17% (Jun 26, 6:00 PM)29.86 "Hg (Jun 22, 6:30 PM)
Average76 °F52%30.09 "Hg
* Reported Jun 20 9:00 AM — Jul 5 9:00 AM, Toulouse, Weather by CustomWeather, © 2015

Note: Actual official high and low records may vary slightly from our data, if they occured in-between our weather recording intervals... More about our weather records

Advertising

Toulouse weather history for previous 24 hours

 ConditionsComfort  
Time TempWeatherWind HumidityBarometerVisibility
9:00 AM
Sun, Jul 5
77 °FPassing clouds.5 mph65%30.04 "HgN/A
8:30 AM75 °FPassing clouds.5 mph65%30.04 "HgN/A
8:00 AM73 °FSunny.7 mph69%30.01 "Hg10 mi
7:30 AM72 °FSunny.3 mph73%30.01 "Hg10 mi
7:00 AM72 °FClear.3 mph73%30.01 "Hg10 mi
6:30 AM72 °FClear.5 mph73%30.04 "Hg10 mi
5:30 AM73 °FPassing clouds.8 mph69%30.01 "HgN/A
5:00 AM73 °FPassing clouds.9 mph74%30.01 "HgN/A
4:30 AM73 °FClear.7 mph74%30.01 "Hg10 mi
4:00 AM73 °FPassing clouds.7 mph74%30.04 "HgN/A
3:30 AM73 °FClear.7 mph74%30.04 "Hg10 mi
3:00 AM75 °FClear.6 mph69%30.04 "Hg10 mi
2:30 AM75 °FPassing clouds.5 mph69%30.04 "HgN/A
2:00 AM75 °FClear.3 mph69%30.07 "Hg10 mi
1:30 AM77 °FClear.6 mph65%30.07 "Hg10 mi
1:00 AM77 °FClear.3 mph65%30.07 "Hg10 mi
12:30 AM79 °FClear.5 mph58%30.07 "Hg10 mi
12:00 AM81 °FClear.7 mph51%30.07 "Hg10 mi
11:30 PM
Sat, Jul 4
82 °FClear.7 mph48%30.07 "Hg10 mi
11:00 PM82 °FClear.6 mph51%30.07 "Hg10 mi
10:30 PM86 °FSunny.No wind46%30.07 "Hg10 mi
10:00 PM86 °FSunny.3 mph46%30.07 "Hg10 mi
9:30 PM88 °FPassing clouds.3 mph43%30.07 "HgN/A
9:00 PM88 °FPassing clouds.5 mph43%30.07 "HgN/A
8:30 PM90 °FPassing clouds.6 mph38%30.07 "HgN/A
8:00 PM91 °FSunny.2 mph36%30.07 "Hg10 mi
7:30 PM90 °FPassing clouds.3 mph36%30.07 "HgN/A
7:00 PM91 °FPassing clouds.6 mph34%30.09 "HgN/A
6:30 PM91 °FPassing clouds.6 mph36%30.09 "HgN/A
6:00 PM91 °FPassing clouds.5 mph36%30.09 "HgN/A
5:30 PM90 °FPassing clouds.5 mph36%30.09 "HgN/A
5:00 PM91 °FPassing clouds.5 mph36%30.12 "HgN/A
4:30 PM90 °FPassing clouds.6 mph36%30.12 "HgN/A
4:00 PM90 °FSunny.5 mph38%30.12 "Hg10 mi
3:30 PM88 °FPassing clouds.5 mph43%30.15 "HgN/A
3:00 PM88 °FPassing clouds.3 mph40%30.15 "HgN/A
2:30 PM88 °FPassing clouds.3 mph43%30.15 "HgN/A
2:00 PM86 °FPassing clouds.5 mph46%30.18 "HgN/A
1:30 PM86 °FPassing clouds.2 mph46%30.18 "HgN/A
1:00 PM84 °FPassing clouds.3 mph48%30.18 "HgN/A
12:30 PM84 °FPassing clouds.3 mph48%30.18 "HgN/A
12:00 PM82 °FPassing clouds.3 mph55%30.18 "HgN/A
11:30 AM81 °FScattered clouds.3 mph58%30.21 "HgN/A
11:00 AM79 °FScattered clouds.3 mph61%30.21 "HgN/A
10:30 AM79 °FPassing clouds.5 mph65%30.21 "HgN/A
10:00 AM79 °FPassing clouds.5 mph65%30.21 "HgN/A
Weather by CustomWeather, © 2015

See weather overviewHow to use our weather pages